TimeEST,TemperatureF,Dew PointF,Humidity,Sea Level PressureIn,VisibilityMPH,Wind Direction,Wind SpeedMPH,Gust SpeedMPH,PrecipitationIn,Events,Conditions,WindDirDegrees,DateUTC
12:51 AM,30.0,26.1,85,30.19,9.0,Calm,Calm,-,N/A,,Clear,0,2012-11-21 05:51:00
1:51 AM,27.0,25.0,92,30.19,8.0,Calm,Calm,-,N/A,,Clear,0,2012-11-21 06:51:00
2:51 AM,26.1,24.1,92,30.20,7.0,Calm,Calm,-,N/A,,Clear,0,2012-11-21 07:51:00
3:51 AM,25.0,21.9,88,30.20,5.0,Calm,Calm,-,N/A,,Clear,0,2012-11-21 08:51:00
4:51 AM,24.1,21.0,88,30.22,5.0,Calm,Calm,-,N/A,,Clear,0,2012-11-21 09:51:00
5:51 AM,24.1,21.0,88,30.26,7.0,Calm,Calm,-,N/A,,Clear,0,2012-11-21 10:51:00
6:51 AM,23.0,19.9,88,30.28,5.0,Calm,Calm,-,N/A,,Clear,0,2012-11-21 11:51:00
7:51 AM,24.1,21.9,91,30.30,5.0,Calm,Calm,-,N/A,,Clear,0,2012-11-21 12:51:00
8:51 AM,30.9,28.0,89,30.30,5.0,Calm,Calm,-,N/A,,Clear,0,2012-11-21 13:51:00
9:51 AM,37.9,30.9,76,30.28,9.0,Calm,Calm,-,N/A,,Clear,0,2012-11-21 14:51:00
10:51 AM,44.1,32.0,63,30.27,10.0,Calm,Calm,-,N/A,,Clear,0,2012-11-21 15:51:00
11:51 AM,51.1,30.0,44,30.24,10.0,Calm,Calm,-,N/A,,Clear,0,2012-11-21 16:51:00
12:51 PM,55.9,15.1,20,30.22,10.0,NNW,5.8,-,N/A,,Clear,340,2012-11-21 17:51:00
1:51 PM,57.9,21.0,24,30.21,10.0,Variable,6.9,-,N/A,,Clear,0,2012-11-21 18:51:00
2:51 PM,57.9,23.0,26,30.21,10.0,Variable,3.5,-,N/A,,Clear,0,2012-11-21 19:51:00
3:51 PM,55.9,23.0,28,30.22,10.0,Variable,4.6,-,N/A,,Clear,0,2012-11-21 20:51:00
4:51 PM,52.0,24.1,34,30.24,10.0,NW,4.6,-,N/A,,Clear,310,2012-11-21 21:51:00
5:51 PM,41.0,24.1,51,30.27,10.0,Calm,Calm,-,N/A,,Clear,0,2012-11-21 22:51:00
6:51 PM,35.1,26.1,70,30.30,10.0,Calm,Calm,-,N/A,,Clear,0,2012-11-21 23:51:00
7:51 PM,30.9,25.0,79,30.31,10.0,Calm,Calm,-,N/A,,Clear,0,2012-11-22 00:51:00
8:51 PM,30.0,24.1,79,30.30,8.0,Calm,Calm,-,N/A,,Clear,0,2012-11-22 01:51:00
9:51 PM,28.9,24.1,82,30.30,10.0,Calm,Calm,-,N/A,,Clear,0,2012-11-22 02:51:00
10:51 PM,27.0,23.0,85,30.30,9.0,Calm,Calm,-,N/A,,Clear,0,2012-11-22 03:51:00
11:51 PM,25.0,21.9,88,30.30,8.0,Calm,Calm,-,N/A,,Clear,0,2012-11-22 04:51:00